Weather History for McCall, ID

Change the Weather History Date:

Sunday, May 20, 2012

  Actual Average Record
Temperature  
Mean Temperature 55 °F 47 °F  
Max Temperature 67 °F 60 °F 83 °F (1958)
Min Temperature 42 °F 34 °F 24 °F (1950)
Degree Days  
Heating Degree Days 10 18  
Month to date heating degree days 369 409  
Since 1 July heating degree days 8157 9044  
Cooling Degree Days 0 0  
Month to date cooling degree days 0 0  
Year to date cooling degree days 0 0  
Growing Degree Days 4 (Base 50)    
Moisture  
Dew Point 35 °F    
Average Humidity 51    
Maximum Humidity 76    
Minimum Humidity 26    
Precipitation  
Precipitation T in 0.08 in 0.68 in (1953)
Month to date precipitation 0.86 1.40  
Year to date precipitation 16.33 8.99  
Sea Level Pressure  
Sea Level Pressure 30.05 in    
Wind  
Wind Speed 4 mph (South)    
Max Wind Speed 17 mph    
Max Gust Speed 22 mph    
Visibility 10 miles    
Events      
T = Trace of Precipitation, MM = Missing Value Source: NWS Daily Summary

Daily Weather History Graph

Daily Weather History Graph

Search for Another Location

Airport:

Trip Planner

Search our weather history database for the weather conditions in past years. The results will help you decide how hot, cold, wet, or windy it might be!

Date:

Astronomy

May. 20, 2012 Rise Set
Actual Time 6:09 AM MDT 9:12 PM MDT
Civil Twilight 5:35 AM MDT 9:47 PM MDT
Nautical Twilight 4:50 AM MDT 10:32 PM MDT
Astronomical Twilight 3:56 AM MDT 11:26 PM MDT
Moon 5:53 AM MDT (5/20) 9:15 PM MDT (5/20)
Length of Visible Light 16h 12m
Length of Day
15h 02m
Waning Crescent, 0% of the Moon is Illuminated
May 20
Waning Crescent
May 20
New
May 28
First Quarter
Jun 4
Full
Jun 11
Last Quarter

Hourly Weather History & Observations

Time (MDT) Temp. Dew Point Humidity Pressure Visibility Wind Dir Wind Speed Gust Speed Precip Events Conditions
12:51 AM 48.0 °F 32.0 °F 54% 30.05 in 10.0 mi North 3.5 mph - N/A   Overcast
1:51 AM 46.9 °F 33.1 °F 59% 30.04 in 10.0 mi Calm Calm - N/A   Overcast
2:51 AM 44.1 °F 35.1 °F 71% 30.05 in 10.0 mi Calm Calm - N/A   Mostly Cloudy
3:51 AM 44.1 °F 33.1 °F 65% 30.05 in 10.0 mi Calm Calm - N/A   Mostly Cloudy
4:51 AM 44.1 °F 33.1 °F 65% 30.05 in 10.0 mi Calm Calm - N/A   Overcast
5:51 AM 43.0 °F 36.0 °F 76% 30.06 in 10.0 mi Calm Calm - 0.00 in   Overcast
6:51 AM 44.1 °F 35.1 °F 71% 30.06 in 10.0 mi Calm Calm - N/A   Overcast
7:51 AM 45.0 °F 35.1 °F 68% 30.07 in 10.0 mi Calm Calm - N/A   Overcast
8:51 AM 46.9 °F 37.0 °F 68% 30.08 in 10.0 mi Calm Calm - N/A   Overcast
9:51 AM 50.0 °F 35.1 °F 57% 30.08 in 10.0 mi South 3.5 mph - N/A   Overcast
10:51 AM 55.9 °F 37.0 °F 49% 30.05 in 10.0 mi Calm Calm - N/A   Overcast
11:51 AM 61.0 °F 30.9 °F 32% 30.05 in 10.0 mi SSE 12.7 mph - N/A   Overcast
12:51 PM 63.0 °F 30.9 °F 30% 30.05 in 10.0 mi South 10.4 mph - N/A   Overcast
1:51 PM 64.0 °F 28.9 °F 27% 30.06 in 10.0 mi South 12.7 mph - N/A   Overcast
2:51 PM 64.9 °F 33.1 °F 31% 30.06 in 10.0 mi South 11.5 mph - N/A   Mostly Cloudy
3:51 PM 64.0 °F 35.1 °F 34% 30.07 in 10.0 mi South 13.8 mph - N/A   Overcast
4:51 PM 66.0 °F 35.1 °F 32% 30.04 in 10.0 mi South 10.4 mph 16.1 mph N/A   Overcast
5:51 PM 64.9 °F 36.0 °F 34% 30.05 in 10.0 mi South 8.1 mph - N/A   Overcast
6:51 PM 64.9 °F 37.0 °F 36% 30.04 in 10.0 mi SSW 3.5 mph - N/A   Overcast
7:51 PM 61.0 °F 39.9 °F 46% 30.05 in 10.0 mi SSE 4.6 mph - N/A   Scattered Clouds
8:51 PM 60.1 °F 37.9 °F 44% 30.04 in 10.0 mi Calm Calm - N/A   Clear
9:51 PM 53.1 °F 41.0 °F 64% 30.06 in 10.0 mi NNE 3.5 mph - N/A   Clear
10:51 PM 54.0 °F 39.0 °F 57% 30.06 in 10.0 mi North 5.8 mph - N/A   Overcast
11:51 PM 52.0 °F 37.9 °F 59% 30.03 in 10.0 mi NNE 4.6 mph - N/A   Clear